Time,TemperatureF,DewpointF,PressureIn,WindDirection,WindDirectionDegrees,WindSpeedMPH,WindSpeedGustMPH,Humidity,HourlyPrecipIn,Conditions,Clouds,dailyrainin,SoftwareType,DateUTC
2013-11-18 00:01:00,24.1,9.8,27.22,SW,225,0.0,0.0,54,0.00,CLR,,0.00,WeatherDisplay:10.37,2013-11-18 06:01:00,
2013-11-18 00:06:00,24.1,9.8,27.23,SW,225,0.0,0.0,54,0.00,CLR,,0.00,WeatherDisplay:10.37,2013-11-18 06:06:00,
2013-11-18 00:11:00,24.1,9.8,27.22,NW,315,0.0,0.0,54,0.00,CLR,,0.00,WeatherDisplay:10.37,2013-11-18 06:11:00,
2013-11-18 00:16:00,24.1,9.8,27.23,NW,315,0.0,0.0,54,0.00,CLR,,0.00,WeatherDisplay:10.37,2013-11-18 06:16:00,
2013-11-18 00:21:00,24.1,9.8,27.23,NW,315,0.0,0.0,54,0.00,CLR,,0.00,WeatherDisplay:10.37,2013-11-18 06:21:00,
2013-11-18 00:26:00,24.1,9.8,27.23,North,0,2.3,2.3,54,0.00,CLR,,0.00,WeatherDisplay:10.37,2013-11-18 06:26:00,
2013-11-18 00:31:00,23.7,9.5,27.23,NW,315,1.2,1.2,54,0.00,CLR,,0.00,WeatherDisplay:10.37,2013-11-18 06:31:00,
2013-11-18 00:36:00,23.4,9.6,27.23,NW,315,1.2,1.2,55,0.00,CLR,,0.00,WeatherDisplay:10.37,2013-11-18 06:36:00,
2013-11-18 00:41:00,23.2,9.8,27.22,NW,315,2.3,0.0,56,0.00,CLR,,0.00,WeatherDisplay:10.37,2013-11-18 06:41:00,
2013-11-18 00:46:00,23.2,9.8,27.23,NW,315,0.0,0.0,56,0.00,CLR,,0.00,WeatherDisplay:10.37,2013-11-18 06:46:00,
2013-11-18 00:51:00,23.4,10.0,27.23,NW,315,1.2,0.0,56,0.00,CLR,,0.00,WeatherDisplay:10.37,2013-11-18 06:51:00,
2013-11-18 00:56:00,23.2,9.8,27.23,SW,225,1.2,0.0,56,0.00,CLR,,0.00,WeatherDisplay:10.37,2013-11-18 06:56:00,
2013-11-18 01:01:00,23.2,9.8,27.23,NW,315,1.2,0.0,56,0.00,CLR,,0.00,WeatherDisplay:10.37,2013-11-18 07:01:00,
2013-11-18 01:06:00,23.2,9.8,27.23,NW,315,0.0,0.0,56,0.00,CLR,,0.00,WeatherDisplay:10.37,2013-11-18 07:06:00,
2013-11-18 01:11:00,23.4,10.0,27.23,NW,315,0.0,0.0,56,0.00,CLR,,0.00,WeatherDisplay:10.37,2013-11-18 07:11:00,
2013-11-18 01:16:00,23.4,10.0,27.22,NW,315,2.3,2.3,56,0.00,CLR,,0.00,WeatherDisplay:10.37,2013-11-18 07:16:00,
2013-11-18 01:21:00,23.4,10.4,27.23,North,0,1.2,0.0,57,0.00,CLR,,0.00,WeatherDisplay:10.37,2013-11-18 07:21:00,
2013-11-18 01:26:00,23.2,9.8,27.23,North,0,1.2,1.2,56,0.00,CLR,,0.00,WeatherDisplay:10.37,2013-11-18 07:26:00,
2013-11-18 01:31:00,22.5,9.5,27.23,North,0,3.5,3.5,57,0.00,CLR,,0.00,WeatherDisplay:10.37,2013-11-18 07:31:00,
2013-11-18 01:36:00,21.7,9.2,27.23,NW,315,1.2,0.0,58,0.00,CLR,,0.00,WeatherDisplay:10.37,2013-11-18 07:36:00,
2013-11-18 01:41:00,21.4,9.3,27.23,NW,315,0.0,0.0,59,0.00,CLR,,0.00,WeatherDisplay:10.37,2013-11-18 07:41:00,
2013-11-18 01:46:00,21.4,9.6,27.23,NW,315,0.7,0.0,60,0.00,CLR,,0.00,WeatherDisplay:10.37,2013-11-18 07:46:00,
2013-11-18 01:51:00,21.4,10.0,27.23,NW,315,2.3,2.3,61,0.00,CLR,,0.00,WeatherDisplay:10.37,2013-11-18 07:51:00,
2013-11-18 01:56:00,21.4,10.4,27.23,North,0,0.0,0.0,62,0.00,CLR,,0.00,WeatherDisplay:10.37,2013-11-18 07:56:00,
2013-11-18 02:01:00,21.4,10.0,27.24,North,0,1.2,0.0,61,0.00,CLR,,0.00,WeatherDisplay:10.37,2013-11-18 08:01:00,
2013-11-18 02:07:00,21.4,10.0,27.23,North,0,1.2,0.0,61,0.00,CLR,,0.00,WeatherDisplay:10.37,2013-11-18 08:07:00,
2013-11-18 02:12:00,21.0,10.4,27.23,NW,315,1.2,0.0,63,0.00,CLR,,0.00,WeatherDisplay:10.37,2013-11-18 08:12:00,
2013-11-18 02:17:00,21.0,10.4,27.23,NW,315,0.0,0.0,63,0.00,CLR,,0.00,WeatherDisplay:10.37,2013-11-18 08:17:00,
2013-11-18 02:22:00,21.0,10.0,27.23,NW,315,0.0,0.0,62,0.00,CLR,,0.00,WeatherDisplay:10.37,2013-11-18 08:22:00,
2013-11-18 02:27:00,21.2,9.8,27.23,NW,315,0.0,0.0,61,0.00,CLR,,0.00,WeatherDisplay:10.37,2013-11-18 08:27:00,
2013-11-18 02:32:00,21.2,10.2,27.23,NW,315,1.2,1.2,62,0.00,CLR,,0.00,WeatherDisplay:10.37,2013-11-18 08:32:00,
2013-11-18 02:37:00,21.2,10.2,27.24,NW,315,1.2,0.0,62,0.00,CLR,,0.00,WeatherDisplay:10.37,2013-11-18 08:37:00,
2013-11-18 02:42:00,21.0,10.4,27.24,NW,315,1.2,1.2,63,0.00,CLR,,0.00,WeatherDisplay:10.37,2013-11-18 08:42:00,
2013-11-18 02:47:00,20.8,10.2,27.24,NW,315,0.0,0.0,63,0.00,CLR,,0.00,WeatherDisplay:10.37,2013-11-18 08:47:00,
2013-11-18 02:52:00,21.0,10.7,27.24,NW,315,0.0,0.0,64,0.00,CLR,,0.00,WeatherDisplay:10.37,2013-11-18 08:52:00,
2013-11-18 02:57:00,21.0,10.7,27.24,NW,315,0.0,0.0,64,0.00,CLR,,0.00,WeatherDisplay:10.37,2013-11-18 08:57:00,
2013-11-18 03:02:00,20.8,10.2,27.25,NW,315,1.6,1.6,63,0.00,CLR,,0.00,WeatherDisplay:10.37,2013-11-18 09:02:00,
2013-11-18 03:07:00,20.8,10.2,27.24,NW,315,2.3,2.3,63,0.00,CLR,,0.00,WeatherDisplay:10.37,2013-11-18 09:07:00,
2013-11-18 03:12:00,20.5,10.2,27.24,NW,315,1.2,1.2,64,0.00,CLR,,0.00,WeatherDisplay:10.37,2013-11-18 09:12:00,
2013-11-18 03:17:00,20.3,10.4,27.25,NW,315,1.2,1.2,65,0.00,CLR,,0.00,WeatherDisplay:10.37,2013-11-18 09:17:00,
2013-11-18 03:22:00,20.1,10.2,27.25,NW,315,2.3,2.3,65,0.00,CLR,,0.00,WeatherDisplay:10.37,2013-11-18 09:22:00,
2013-11-18 03:27:00,20.1,10.2,27.24,NW,315,2.3,2.3,65,0.00,CLR,,0.00,WeatherDisplay:10.37,2013-11-18 09:27:00,
2013-11-18 03:32:00,20.1,10.6,27.24,NW,315,1.2,1.2,66,0.00,CLR,,0.00,WeatherDisplay:10.37,2013-11-18 09:32:00,
2013-11-18 03:37:00,20.1,10.6,27.25,NW,315,1.2,0.0,66,0.00,CLR,,0.00,WeatherDisplay:10.37,2013-11-18 09:37:00,
2013-11-18 03:42:00,20.1,10.6,27.24,North,0,1.2,0.0,66,0.00,CLR,,0.00,WeatherDisplay:10.37,2013-11-18 09:42:00,
2013-11-18 03:47:00,20.1,10.6,27.24,North,0,1.2,1.2,66,0.00,CLR,,0.00,WeatherDisplay:10.37,2013-11-18 09:47:00,
2013-11-18 03:52:00,19.9,10.4,27.25,North,0,2.3,2.3,66,0.00,CLR,,0.00,WeatherDisplay:10.37,2013-11-18 09:52:00,
2013-11-18 03:57:00,19.8,10.2,27.25,NW,315,0.0,0.0,66,0.00,CLR,,0.00,WeatherDisplay:10.37,2013-11-18 09:57:00,
2013-11-18 04:02:00,19.8,10.6,27.24,NW,315,1.2,0.0,67,0.00,CLR,,0.00,WeatherDisplay:10.37,2013-11-18 10:02:00,
2013-11-18 04:07:00,19.8,10.6,27.25,NW,315,1.2,0.0,67,0.00,CLR,,0.00,WeatherDisplay:10.37,2013-11-18 10:07:00,
2013-11-18 04:12:00,19.9,10.7,27.25,NW,315,2.3,2.3,67,0.00,CLR,,0.00,WeatherDisplay:10.37,2013-11-18 10:12:00,
2013-11-18 04:17:00,19.9,10.7,27.24,NW,315,2.3,2.3,67,0.00,CLR,,0.00,WeatherDisplay:10.37,2013-11-18 10:17:00,
2013-11-18 04:22:00,19.9,10.7,27.25,NW,315,0.0,0.0,67,0.00,CLR,,0.00,WeatherDisplay:10.37,2013-11-18 10:22:00,
2013-11-18 04:27:00,19.9,10.7,27.25,NW,315,0.0,0.0,67,0.00,CLR,,0.00,WeatherDisplay:10.37,2013-11-18 10:27:00,
2013-11-18 04:32:00,19.9,10.7,27.25,SW,225,1.2,1.2,67,0.00,CLR,,0.00,WeatherDisplay:10.37,2013-11-18 10:32:00,
2013-11-18 04:37:00,19.8,10.2,27.25,SW,225,0.0,0.0,66,0.00,CLR,,0.00,WeatherDisplay:10.37,2013-11-18 10:37:00,
2013-11-18 04:42:00,19.8,10.2,27.25,North,0,0.0,0.0,66,0.00,CLR,,0.00,WeatherDisplay:10.37,2013-11-18 10:42:00,
2013-11-18 04:47:00,19.8,10.2,27.25,North,0,0.0,0.0,66,0.00,CLR,,0.00,WeatherDisplay:10.37,2013-11-18 10:47:00,
2013-11-18 04:52:00,19.8,10.2,27.25,North,0,0.0,0.0,66,0.00,CLR,,0.00,WeatherDisplay:10.37,2013-11-18 10:52:00,
2013-11-18 04:57:00,19.8,10.2,27.25,North,0,0.0,0.0,66,0.00,CLR,,0.00,WeatherDisplay:10.37,2013-11-18 10:57:00,
2013-11-18 05:02:00,19.6,10.1,27.25,NW,315,1.2,0.0,66,0.00,CLR,,0.00,WeatherDisplay:10.37,2013-11-18 11:02:00,
2013-11-18 05:07:00,19.2,8.3,27.25,NW,315,1.2,1.2,62,0.00,CLR,,0.00,WeatherDisplay:10.37,2013-11-18 11:07:00,
2013-11-18 05:12:00,19.0,8.5,27.25,NW,315,0.0,0.0,63,0.00,CLR,,0.00,WeatherDisplay:10.37,2013-11-18 11:12:00,
2013-11-18 05:17:00,19.0,8.5,27.25,North,0,2.3,2.3,63,0.00,CLR,,0.00,WeatherDisplay:10.37,2013-11-18 11:17:00,
2013-11-18 05:22:00,18.9,8.3,27.25,NW,315,1.2,0.0,63,0.00,CLR,,0.00,WeatherDisplay:10.37,2013-11-18 11:22:00,
2013-11-18 05:27:00,18.7,8.5,27.26,North,0,1.2,1.2,64,0.00,CLR,,0.00,WeatherDisplay:10.37,2013-11-18 11:27:00,
2013-11-18 05:32:00,18.7,8.5,27.26,NW,315,0.0,0.0,64,0.00,CLR,,0.00,WeatherDisplay:10.37,2013-11-18 11:32:00,
2013-11-18 05:37:00,18.7,8.5,27.26,West,270,0.0,0.0,64,0.00,CLR,,0.00,WeatherDisplay:10.37,2013-11-18 11:37:00,
2013-11-18 05:42:00,18.9,8.7,27.26,West,270,0.0,0.0,64,0.00,CLR,,0.00,WeatherDisplay:10.37,2013-11-18 11:42:00,
2013-11-18 05:47:00,18.7,8.5,27.25,West,270,0.0,0.0,64,0.00,CLR,,0.00,WeatherDisplay:10.37,2013-11-18 11:47:00,
2013-11-18 05:52:00,18.7,8.5,27.26,West,270,0.0,0.0,64,0.00,CLR,,0.00,WeatherDisplay:10.37,2013-11-18 11:52:00,
2013-11-18 05:57:00,18.7,8.5,27.25,West,270,0.0,0.0,64,0.00,CLR,,0.00,WeatherDisplay:10.37,2013-11-18 11:57:00,
2013-11-18 06:02:00,18.7,8.2,27.26,West,270,0.0,0.0,63,0.00,CLR,,0.00,WeatherDisplay:10.37,2013-11-18 12:02:00,
2013-11-18 06:07:00,18.7,8.2,27.26,West,270,0.0,0.0,63,0.00,CLR,,0.00,WeatherDisplay:10.37,2013-11-18 12:07:00,
2013-11-18 06:12:00,18.7,8.2,27.26,SW,225,0.0,0.0,63,0.00,CLR,,0.00,WeatherDisplay:10.37,2013-11-18 12:12:00,
2013-11-18 06:17:00,18.7,8.2,27.26,SW,225,1.2,0.0,63,0.00,CLR,,0.00,WeatherDisplay:10.37,2013-11-18 12:17:00,
2013-11-18 06:22:00,18.7,8.2,27.26,North,0,0.0,0.0,63,0.00,CLR,,0.00,WeatherDisplay:10.37,2013-11-18 12:22:00,
2013-11-18 06:27:00,18.7,8.2,27.26,North,0,1.2,0.0,63,0.00,CLR,,0.00,WeatherDisplay:10.37,2013-11-18 12:27:00,
2013-11-18 06:32:00,18.5,8.0,27.27,North,0,1.2,0.0,63,0.00,CLR,,0.00,WeatherDisplay:10.37,2013-11-18 12:32:00,
2013-11-18 06:37:00,18.5,8.0,27.26,SW,225,0.0,0.0,63,0.00,CLR,,0.00,WeatherDisplay:10.37,2013-11-18 12:37:00,
2013-11-18 06:42:00,18.5,8.0,27.26,SW,225,1.2,1.2,63,0.00,CLR,,0.00,WeatherDisplay:10.37,2013-11-18 12:42:00,
2013-11-18 06:47:00,18.3,7.8,27.26,SW,225,1.2,0.0,63,0.00,CLR,,0.00,WeatherDisplay:10.37,2013-11-18 12:47:00,
2013-11-18 06:52:00,18.3,7.8,27.26,North,0,0.0,0.0,63,0.00,CLR,,0.00,WeatherDisplay:10.37,2013-11-18 12:52:00,
2013-11-18 06:57:00,18.1,7.6,27.27,North,0,1.2,0.0,63,0.00,CLR,,0.00,WeatherDisplay:10.37,2013-11-18 12:57:00,
2013-11-18 07:02:00,18.3,8.2,27.27,North,0,1.2,0.0,64,0.00,CLR,,0.00,WeatherDisplay:10.37,2013-11-18 13:02:00,
2013-11-18 07:07:00,18.3,8.2,27.27,North,0,0.0,0.0,64,0.00,CLR,,0.00,WeatherDisplay:10.37,2013-11-18 13:07:00,
2013-11-18 07:12:00,18.3,8.2,27.27,West,270,1.2,0.0,64,0.00,CLR,,0.00,WeatherDisplay:10.37,2013-11-18 13:12:00,
2013-11-18 07:17:00,18.5,8.3,27.27,North,0,1.2,0.0,64,0.00,CLR,,0.00,WeatherDisplay:10.37,2013-11-18 13:17:00,
2013-11-18 07:22:00,18.5,8.7,27.27,North,0,0.0,0.0,65,0.00,CLR,,0.00,WeatherDisplay:10.37,2013-11-18 13:22:00,
2013-11-18 07:27:00,18.5,8.3,27.27,SE,135,1.2,0.0,64,0.00,CLR,,0.00,WeatherDisplay:10.37,2013-11-18 13:27:00,
2013-11-18 07:32:00,18.3,8.2,27.28,North,0,0.0,0.0,64,0.00,CLR,,0.00,WeatherDisplay:10.37,2013-11-18 13:32:00,
2013-11-18 07:37:00,18.3,8.2,27.27,North,0,0.0,0.0,64,0.00,CLR,,0.00,WeatherDisplay:10.37,2013-11-18 13:37:00,
2013-11-18 07:42:00,18.1,8.0,27.27,North,0,0.0,0.0,64,0.00,CLR,,0.00,WeatherDisplay:10.37,2013-11-18 13:42:00,
2013-11-18 07:47:00,18.1,8.0,27.28,North,0,0.0,0.0,64,0.00,CLR,,0.00,WeatherDisplay:10.37,2013-11-18 13:47:00,
2013-11-18 07:52:00,18.3,8.2,27.28,North,0,0.0,0.0,64,0.00,CLR,,0.00,WeatherDisplay:10.37,2013-11-18 13:52:00,
2013-11-18 07:57:00,18.5,8.3,27.28,NW,315,0.0,0.0,64,0.00,CLR,,0.00,WeatherDisplay:10.37,2013-11-18 13:57:00,
2013-11-18 08:02:00,18.7,8.9,27.29,NW,315,0.0,0.0,65,0.00,CLR,,0.00,WeatherDisplay:10.37,2013-11-18 14:02:00,
2013-11-18 08:07:00,18.7,8.9,27.29,NW,315,0.0,0.0,65,0.00,CLR,,0.00,WeatherDisplay:10.37,2013-11-18 14:07:00,
2013-11-18 08:12:00,19.0,9.2,27.29,North,0,1.2,1.2,65,0.00,CLR,,0.00,WeatherDisplay:10.37,2013-11-18 14:12:00,
2013-11-18 08:17:00,19.2,9.4,27.29,North,0,0.0,0.0,65,0.00,CLR,,0.00,WeatherDisplay:10.37,2013-11-18 14:17:00,
2013-11-18 08:22:00,19.4,10.9,27.29,North,0,0.0,0.0,69,0.00,CLR,,0.00,WeatherDisplay:10.37,2013-11-18 14:22:00,
2013-11-18 08:27:00,19.8,11.6,27.29,NW,315,0.0,0.0,70,0.00,CLR,,0.00,WeatherDisplay:10.37,2013-11-18 14:27:00,
2013-11-18 08:32:00,20.7,12.4,27.29,NE,45,0.0,0.0,70,0.00,CLR,,0.00,WeatherDisplay:10.37,2013-11-18 14:32:00,
2013-11-18 08:37:00,21.2,12.6,27.29,South,180,1.2,1.2,69,0.00,CLR,,0.00,WeatherDisplay:10.37,2013-11-18 14:37:00,
2013-11-18 08:42:00,21.9,13.6,27.29,East,90,0.0,0.0,70,0.00,CLR,,0.00,WeatherDisplay:10.37,2013-11-18 14:42:00,
2013-11-18 08:47:00,22.8,14.5,27.29,North,0,0.0,0.0,70,0.00,CLR,,0.00,WeatherDisplay:10.37,2013-11-18 14:47:00,
2013-11-18 08:52:00,23.4,14.7,27.29,East,90,0.0,0.0,69,0.00,CLR,,0.00,WeatherDisplay:10.37,2013-11-18 14:52:00,
2013-11-18 08:57:00,24.3,15.5,27.29,East,90,0.0,0.0,69,0.00,CLR,,0.00,WeatherDisplay:10.37,2013-11-18 14:57:00,
2013-11-18 09:02:00,25.3,16.2,27.29,East,90,0.0,0.0,68,0.00,CLR,,0.00,WeatherDisplay:10.37,2013-11-18 15:02:00,
2013-11-18 09:07:00,26.2,17.1,27.29,North,0,0.0,0.0,68,0.00,CLR,,0.00,WeatherDisplay:10.37,2013-11-18 15:07:00,
2013-11-18 09:12:00,27.5,17.3,27.29,North,0,1.2,1.2,65,0.00,CLR,,0.00,WeatherDisplay:10.37,2013-11-18 15:12:00,
2013-11-18 09:17:00,28.6,19.4,27.29,North,0,0.0,0.0,68,0.00,CLR,,0.00,WeatherDisplay:10.37,2013-11-18 15:17:00,
2013-11-18 09:22:00,29.7,20.0,27.29,SSE,158,1.2,1.6,67,0.00,CLR,,0.00,WeatherDisplay:10.37,2013-11-18 15:22:00,
2013-11-18 09:27:00,30.7,20.4,27.30,South,180,2.3,2.3,65,0.00,CLR,,0.00,WeatherDisplay:10.37,2013-11-18 15:27:00,
2013-11-18 09:32:00,32.5,21.7,27.29,North,0,0.0,0.0,64,0.00,CLR,,0.00,WeatherDisplay:10.37,2013-11-18 15:32:00,
2013-11-18 09:37:00,33.3,21.3,27.29,North,0,1.2,0.0,61,0.00,CLR,,0.00,WeatherDisplay:10.37,2013-11-18 15:37:00,
2013-11-18 09:42:00,34.0,20.3,27.29,North,0,0.0,0.7,57,0.00,CLR,,0.00,WeatherDisplay:10.37,2013-11-18 15:42:00,
2013-11-18 09:47:00,34.9,20.3,27.29,NE,45,1.2,0.0,55,0.00,CLR,,0.00,WeatherDisplay:10.37,2013-11-18 15:47:00,
2013-11-18 09:51:00,35.4,20.8,27.29,NNW,338,1.2,1.6,55,0.00,CLR,,0.00,WeatherDisplay:10.37,2013-11-18 15:51:00,
2013-11-18 09:56:00,36.5,20.5,27.29,NE,45,2.3,0.0,52,0.00,CLR,,0.00,WeatherDisplay:10.37,2013-11-18 15:56:00,
2013-11-18 10:01:00,37.2,20.7,27.29,North,0,2.3,2.3,51,0.00,CLR,,0.00,WeatherDisplay:10.37,2013-11-18 16:01:00,
2013-11-18 10:06:00,37.2,20.7,27.29,North,0,2.3,2.3,51,0.00,CLR,,0.00,WeatherDisplay:10.37,2013-11-18 16:06:00,
2013-11-18 10:11:00,41.0,22.3,27.29,SE,135,3.5,3.5,47,0.00,CLR,,0.00,WeatherDisplay:10.37,2013-11-18 16:11:00,
2013-11-18 10:16:00,43.9,21.7,27.28,West,270,5.8,5.8,41,0.00,CLR,,0.00,WeatherDisplay:10.37,2013-11-18 16:16:00,
2013-11-18 10:21:00,46.2,20.7,27.29,SW,225,5.8,5.8,36,0.00,CLR,,0.00,WeatherDisplay:10.37,2013-11-18 16:21:00,
2013-11-18 10:26:00,46.9,20.7,27.29,NW,315,3.5,3.5,35,0.00,CLR,,0.00,WeatherDisplay:10.37,2013-11-18 16:26:00,
2013-11-18 10:31:00,48.6,17.7,27.29,SW,225,6.9,6.9,29,0.00,CLR,,0.00,WeatherDisplay:10.37,2013-11-18 16:31:00,
2013-11-18 10:36:00,49.3,16.7,27.28,South,180,6.9,6.9,27,0.00,CLR,,0.00,WeatherDisplay:10.37,2013-11-18 16:36:00,
2013-11-18 10:41:00,50.0,16.4,27.28,WNW,292,4.6,4.6,26,0.00,CLR,,0.00,WeatherDisplay:10.37,2013-11-18 16:41:00,
2013-11-18 10:46:00,50.7,17.0,27.28,SE,135,8.1,8.1,26,0.00,CLR,,0.00,WeatherDisplay:10.37,2013-11-18 16:46:00,
2013-11-18 10:51:00,51.4,16.7,27.28,SSW,202,5.8,5.8,25,0.00,CLR,,0.00,WeatherDisplay:10.37,2013-11-18 16:51:00,
2013-11-18 10:56:00,52.0,15.3,27.28,South,180,8.1,8.1,23,0.00,CLR,,0.00,WeatherDisplay:10.37,2013-11-18 16:56:00,
2013-11-18 11:01:00,52.2,15.4,27.27,NW,315,8.1,8.1,23,0.00,CLR,,0.00,WeatherDisplay:10.37,2013-11-18 17:01:00,
2013-11-18 11:06:00,52.7,15.9,27.27,South,180,4.6,4.6,23,0.00,CLR,,0.00,WeatherDisplay:10.37,2013-11-18 17:06:00,
2013-11-18 11:11:00,53.1,16.2,27.28,SW,225,4.6,4.6,23,0.00,CLR,,0.00,WeatherDisplay:10.37,2013-11-18 17:11:00,
2013-11-18 11:16:00,53.4,15.5,27.27,SW,225,8.1,8.1,22,0.00,CLR,,0.00,WeatherDisplay:10.37,2013-11-18 17:16:00,
2013-11-18 11:21:00,53.6,14.5,27.27,SW,225,5.8,5.8,21,0.00,CLR,,0.00,WeatherDisplay:10.37,2013-11-18 17:21:00,
2013-11-18 11:26:00,54.0,14.9,27.27,SE,135,8.1,8.1,21,0.00,CLR,,0.00,WeatherDisplay:10.37,2013-11-18 17:26:00,
2013-11-18 11:31:00,54.5,15.3,27.27,SW,225,4.6,4.6,21,0.00,CLR,,0.00,WeatherDisplay:10.37,2013-11-18 17:31:00,
2013-11-18 11:36:00,55.0,15.8,27.26,SW,225,8.1,8.1,21,0.00,CLR,,0.00,WeatherDisplay:10.37,2013-11-18 17:36:00,
2013-11-18 11:41:00,55.6,19.3,27.27,East,90,4.6,4.6,24,0.00,CLR,,0.00,WeatherDisplay:10.37,2013-11-18 17:41:00,
2013-11-18 11:46:00,56.7,20.2,27.26,SW,225,8.1,8.1,24,0.00,CLR,,0.00,WeatherDisplay:10.37,2013-11-18 17:46:00,
2013-11-18 11:51:00,57.0,19.5,27.26,South,180,10.4,10.4,23,0.00,CLR,,0.00,WeatherDisplay:10.37,2013-11-18 17:51:00,
2013-11-18 11:56:00,57.2,18.6,27.26,East,90,6.0,6.0,22,0.00,CLR,,0.00,WeatherDisplay:10.37,2013-11-18 17:56:00,
2013-11-18 12:01:00,57.4,18.8,27.25,South,180,10.4,10.4,22,0.00,CLR,,0.00,WeatherDisplay:10.37,2013-11-18 18:01:00,
2013-11-18 12:06:00,57.4,18.8,27.25,South,180,9.2,9.2,22,0.00,CLR,,0.00,WeatherDisplay:10.37,2013-11-18 18:06:00,
2013-11-18 12:11:00,58.5,19.7,27.25,South,180,4.6,4.6,22,0.00,CLR,,0.00,WeatherDisplay:10.37,2013-11-18 18:11:00,
2013-11-18 12:16:00,59.0,19.1,27.24,South,180,3.5,3.8,21,0.00,CLR,,0.00,WeatherDisplay:10.37,2013-11-18 18:16:00,
2013-11-18 12:21:00,59.2,19.2,27.24,SE,135,6.9,6.9,21,0.00,CLR,,0.00,WeatherDisplay:10.37,2013-11-18 18:21:00,
2013-11-18 12:26:00,59.5,19.5,27.23,South,180,3.5,3.5,21,0.00,CLR,,0.00,WeatherDisplay:10.37,2013-11-18 18:26:00,
2013-11-18 12:31:00,60.1,20.0,27.23,SW,225,6.9,6.9,21,0.00,CLR,,0.00,WeatherDisplay:10.37,2013-11-18 18:31:00,
2013-11-18 12:36:00,60.6,19.3,27.23,South,180,9.2,9.2,20,0.00,CLR,,0.00,WeatherDisplay:10.37,2013-11-18 18:36:00,
2013-11-18 12:41:00,61.0,18.4,27.23,South,180,8.1,8.3,19,0.00,CLR,,0.00,WeatherDisplay:10.37,2013-11-18 18:41:00,
2013-11-18 12:46:00,61.2,18.5,27.22,SW,225,6.9,6.9,19,0.00,CLR,,0.00,WeatherDisplay:10.37,2013-11-18 18:46:00,
2013-11-18 12:51:00,61.5,18.8,27.22,SW,225,9.2,9.2,19,0.00,CLR,,0.00,WeatherDisplay:10.37,2013-11-18 18:51:00,
2013-11-18 12:56:00,61.3,18.7,27.22,SW,225,13.8,13.8,19,0.00,CLR,,0.00,WeatherDisplay:10.37,2013-11-18 18:56:00,
2013-11-18 13:01:00,61.2,18.5,27.22,SW,225,6.9,6.9,19,0.00,CLR,,0.00,WeatherDisplay:10.37,2013-11-18 19:01:00,
2013-11-18 13:06:00,61.5,18.8,27.22,SW,225,9.2,9.2,19,0.00,CLR,,0.00,WeatherDisplay:10.37,2013-11-18 19:06:00,
2013-11-18 13:11:00,61.3,18.7,27.21,SW,225,8.1,8.1,19,0.00,CLR,,0.00,WeatherDisplay:10.37,2013-11-18 19:11:00,
2013-11-18 13:16:00,61.3,18.7,27.21,South,180,9.2,9.2,19,0.00,CLR,,0.00,WeatherDisplay:10.37,2013-11-18 19:16:00,
2013-11-18 13:21:00,61.3,18.7,27.21,South,180,8.1,8.1,19,0.00,CLR,,0.00,WeatherDisplay:10.37,2013-11-18 19:21:00,
2013-11-18 13:26:00,61.5,18.8,27.21,SSE,158,5.8,5.8,19,0.00,CLR,,0.00,WeatherDisplay:10.37,2013-11-18 19:26:00,
2013-11-18 13:31:00,61.7,19.0,27.20,South,180,9.2,9.2,19,0.00,CLR,,0.00,WeatherDisplay:10.37,2013-11-18 19:31:00,
2013-11-18 13:36:00,61.7,19.0,27.21,South,180,10.4,10.4,19,0.00,CLR,,0.00,WeatherDisplay:10.37,2013-11-18 19:36:00,
2013-11-18 13:41:00,61.9,19.1,27.20,SSW,202,13.0,13.0,19,0.00,CLR,,0.00,WeatherDisplay:10.37,2013-11-18 19:41:00,
2013-11-18 13:46:00,62.2,19.4,27.20,SW,225,5.8,5.8,19,0.00,CLR,,0.00,WeatherDisplay:10.37,2013-11-18 19:46:00,
2013-11-18 13:51:00,62.6,18.4,27.19,South,180,8.1,8.1,18,0.00,CLR,,0.00,WeatherDisplay:10.37,2013-11-18 19:51:00,
2013-11-18 13:56:00,62.8,18.6,27.20,South,180,8.1,8.1,18,0.00,CLR,,0.00,WeatherDisplay:10.37,2013-11-18 19:56:00,
2013-11-18 14:01:00,62.6,18.4,27.20,South,180,4.6,4.6,18,0.00,CLR,,0.00,WeatherDisplay:10.37,2013-11-18 20:01:00,
2013-11-18 14:06:00,62.6,18.4,27.19,South,180,4.6,4.6,18,0.00,CLR,,0.00,WeatherDisplay:10.37,2013-11-18 20:06:00,
2013-11-18 14:11:00,62.8,18.6,27.19,SE,135,10.4,10.4,18,0.00,CLR,,0.00,WeatherDisplay:10.37,2013-11-18 20:11:00,
2013-11-18 14:16:00,62.8,18.6,27.19,SE,135,8.1,8.1,18,0.00,CLR,,0.00,WeatherDisplay:10.37,2013-11-18 20:16:00,
2013-11-18 14:21:00,62.8,18.6,27.19,South,180,12.7,12.7,18,0.00,CLR,,0.00,WeatherDisplay:10.37,2013-11-18 20:21:00,
2013-11-18 14:26:00,62.8,18.6,27.19,South,180,10.4,10.4,18,0.00,CLR,,0.00,WeatherDisplay:10.37,2013-11-18 20:26:00,
2013-11-18 14:31:00,62.8,18.6,27.19,South,180,10.4,10.4,18,0.00,CLR,,0.00,WeatherDisplay:10.37,2013-11-18 20:31:00,
2013-11-18 14:36:00,62.8,18.6,27.18,South,180,8.1,8.1,18,0.00,CLR,,0.00,WeatherDisplay:10.37,2013-11-18 20:36:00,
2013-11-18 14:41:00,62.8,18.6,27.18,South,180,10.4,10.4,18,0.00,CLR,,0.00,WeatherDisplay:10.37,2013-11-18 20:41:00,
2013-11-18 14:46:00,63.0,18.7,27.18,SW,225,10.4,10.4,18,0.00,CLR,,0.00,WeatherDisplay:10.37,2013-11-18 20:46:00,
2013-11-18 14:51:00,63.5,19.2,27.18,SW,225,8.1,8.1,18,0.00,CLR,,0.00,WeatherDisplay:10.37,2013-11-18 20:51:00,
2013-11-18 14:56:00,63.9,19.5,27.18,SW,225,10.4,10.4,18,0.00,CLR,,0.00,WeatherDisplay:10.37,2013-11-18 20:56:00,
2013-11-18 15:01:00,64.4,18.6,27.18,SW,225,12.7,12.7,17,0.00,CLR,,0.00,WeatherDisplay:10.37,2013-11-18 21:01:00,
2013-11-18 15:06:00,64.4,18.6,27.17,SW,225,5.8,5.8,17,0.00,CLR,,0.00,WeatherDisplay:10.37,2013-11-18 21:06:00,
2013-11-18 15:11:00,64.2,19.8,27.17,South,180,8.1,8.1,18,0.00,CLR,,0.00,WeatherDisplay:10.37,2013-11-18 21:11:00,
2013-11-18 15:16:00,64.2,19.8,27.17,SW,225,10.4,10.4,18,0.00,CLR,,0.00,WeatherDisplay:10.37,2013-11-18 21:16:00,
2013-11-18 15:21:00,64.4,18.6,27.17,South,180,9.2,9.2,17,0.00,CLR,,0.00,WeatherDisplay:10.37,2013-11-18 21:21:00,
2013-11-18 15:26:00,64.4,18.6,27.17,South,180,10.4,10.4,17,0.00,CLR,,0.00,WeatherDisplay:10.37,2013-11-18 21:26:00,
2013-11-18 15:31:00,64.2,19.8,27.17,SSE,158,9.2,9.2,18,0.00,CLR,,0.00,WeatherDisplay:10.37,2013-11-18 21:31:00,
2013-11-18 15:36:00,64.0,19.6,27.16,SW,225,16.1,16.1,18,0.00,CLR,,0.00,WeatherDisplay:10.37,2013-11-18 21:36:00,
2013-11-18 15:41:00,63.7,19.3,27.17,South,180,10.4,10.4,18,0.00,CLR,,0.00,WeatherDisplay:10.37,2013-11-18 21:41:00,
2013-11-18 15:46:00,63.5,19.2,27.17,South,180,9.2,9.2,18,0.00,CLR,,0.00,WeatherDisplay:10.37,2013-11-18 21:46:00,
2013-11-18 15:51:00,63.1,18.9,27.16,South,180,5.8,5.8,18,0.00,CLR,,0.00,WeatherDisplay:10.37,2013-11-18 21:51:00,
2013-11-18 15:56:00,63.0,18.7,27.17,SW,225,10.4,10.4,18,0.00,CLR,,0.00,WeatherDisplay:10.37,2013-11-18 21:56:00,
2013-11-18 16:01:00,62.8,18.6,27.17,SE,135,9.2,9.2,18,0.00,CLR,,0.00,WeatherDisplay:10.37,2013-11-18 22:01:00,
2013-11-18 16:06:00,62.8,18.6,27.16,SE,135,9.2,9.2,18,0.00,CLR,,0.00,WeatherDisplay:10.37,2013-11-18 22:06:00,
2013-11-18 16:11:00,62.2,20.6,27.16,South,180,5.8,6.0,20,0.00,CLR,,0.00,WeatherDisplay:10.37,2013-11-18 22:11:00,
2013-11-18 16:16:00,62.1,20.5,27.16,SSE,158,10.4,10.4,20,0.00,CLR,,0.00,WeatherDisplay:10.37,2013-11-18 22:16:00,
2013-11-18 16:21:00,61.7,20.2,27.16,South,180,9.2,9.2,20,0.00,CLR,,0.00,WeatherDisplay:10.37,2013-11-18 22:21:00,
2013-11-18 16:26:00,61.3,19.9,27.16,South,180,6.9,6.9,20,0.00,CLR,,0.00,WeatherDisplay:10.37,2013-11-18 22:26:00,
2013-11-18 16:31:00,61.0,19.6,27.15,South,180,5.8,5.8,20,0.00,CLR,,0.00,WeatherDisplay:10.37,2013-11-18 22:31:00,
2013-11-18 16:36:00,60.4,21.4,27.16,SW,225,5.8,5.8,22,0.00,CLR,,0.00,WeatherDisplay:10.37,2013-11-18 22:36:00,
2013-11-18 16:41:00,60.3,21.2,27.16,South,180,8.1,8.1,22,0.00,CLR,,0.00,WeatherDisplay:10.37,2013-11-18 22:41:00,
2013-11-18 16:46:00,59.7,20.8,27.16,South,180,5.8,5.8,22,0.00,CLR,,0.00,WeatherDisplay:10.37,2013-11-18 22:46:00,
2013-11-18 16:51:00,59.4,21.5,27.16,South,180,5.8,5.8,23,0.00,CLR,,0.00,WeatherDisplay:10.37,2013-11-18 22:51:00,
2013-11-18 16:56:00,59.0,21.2,27.15,SSW,202,3.5,3.5,23,0.00,CLR,,0.00,WeatherDisplay:10.37,2013-11-18 22:56:00,
2013-11-18 17:01:00,58.5,21.8,27.15,SW,225,5.8,5.8,24,0.00,CLR,,0.00,WeatherDisplay:10.37,2013-11-18 23:01:00,
2013-11-18 17:06:00,57.9,21.3,27.15,South,180,4.6,4.6,24,0.00,CLR,,0.00,WeatherDisplay:10.37,2013-11-18 23:06:00,
2013-11-18 17:11:00,57.2,20.7,27.15,South,180,3.5,3.5,24,0.00,CLR,,0.00,WeatherDisplay:10.37,2013-11-18 23:11:00,
2013-11-18 17:16:00,56.5,21.0,27.15,South,180,2.3,2.3,25,0.00,CLR,,0.00,WeatherDisplay:10.37,2013-11-18 23:16:00,
2013-11-18 17:21:00,55.6,20.3,27.15,South,180,3.5,3.5,25,0.00,CLR,,0.00,WeatherDisplay:10.37,2013-11-18 23:21:00,
2013-11-18 17:26:00,54.9,17.7,27.16,South,180,2.3,2.3,23,0.00,CLR,,0.00,WeatherDisplay:10.37,2013-11-18 23:26:00,
2013-11-18 17:31:00,54.0,16.9,27.15,NE,45,0.0,0.0,23,0.00,CLR,,0.00,WeatherDisplay:10.37,2013-11-18 23:31:00,
2013-11-18 17:36:00,53.2,18.3,27.16,NE,45,0.0,0.0,25,0.00,CLR,,0.00,WeatherDisplay:10.37,2013-11-18 23:36:00,
2013-11-18 17:41:00,52.7,17.8,27.15,East,90,1.2,0.0,25,0.00,CLR,,0.00,WeatherDisplay:10.37,2013-11-18 23:41:00,
2013-11-18 17:46:00,51.8,18.0,27.16,North,0,0.0,0.0,26,0.00,CLR,,0.00,WeatherDisplay:10.37,2013-11-18 23:46:00,
2013-11-18 17:51:00,51.1,19.1,27.16,North,0,0.0,0.0,28,0.00,CLR,,0.00,WeatherDisplay:10.37,2013-11-18 23:51:00,
2013-11-18 17:56:00,50.2,18.3,27.16,SE,135,1.2,0.0,28,0.00,CLR,,0.00,WeatherDisplay:10.37,2013-11-18 23:56:00,
2013-11-18 18:01:00,49.6,19.4,27.16,NW,315,0.0,0.0,30,0.00,CLR,,0.00,WeatherDisplay:10.37,2013-11-19 00:01:00,
2013-11-18 18:06:00,49.6,19.4,27.16,NW,315,0.0,0.0,30,0.00,CLR,,0.00,WeatherDisplay:10.37,2013-11-19 00:06:00,
2013-11-18 18:11:00,48.4,20.6,27.16,NW,315,0.0,0.0,33,0.00,CLR,,0.00,WeatherDisplay:10.37,2013-11-19 00:11:00,
2013-11-18 18:16:00,48.0,21.6,27.16,NW,315,0.0,0.0,35,0.00,CLR,,0.00,WeatherDisplay:10.37,2013-11-19 00:16:00,
2013-11-18 18:21:00,47.5,21.2,27.17,South,180,0.0,0.0,35,0.00,CLR,,0.00,WeatherDisplay:10.37,2013-11-19 00:21:00,
2013-11-18 18:26:00,47.1,20.8,27.16,SE,135,2.3,2.3,35,0.00,CLR,,0.00,WeatherDisplay:10.37,2013-11-19 00:26:00,
2013-11-18 18:31:00,46.4,20.2,27.17,SE,135,1.2,0.0,35,0.00,CLR,,0.00,WeatherDisplay:10.37,2013-11-19 00:31:00,
2013-11-18 18:36:00,45.9,19.7,27.17,East,90,0.0,0.0,35,0.00,CLR,,0.00,WeatherDisplay:10.37,2013-11-19 00:36:00,
2013-11-18 18:41:00,45.0,20.2,27.17,East,90,0.0,0.0,37,0.00,CLR,,0.00,WeatherDisplay:10.37,2013-11-19 00:41:00,
2013-11-18 18:46:00,44.2,20.8,27.17,East,90,0.0,0.0,39,0.00,CLR,,0.00,WeatherDisplay:10.37,2013-11-19 00:46:00,
2013-11-18 18:51:00,43.9,21.1,27.17,South,180,2.3,2.3,40,0.00,CLR,,0.00,WeatherDisplay:10.37,2013-11-19 00:51:00,
2013-11-18 18:56:00,43.2,20.4,27.16,SE,135,2.3,2.3,40,0.00,CLR,,0.00,WeatherDisplay:10.37,2013-11-19 00:56:00,
2013-11-18 19:01:00,42.4,20.4,27.17,SE,135,0.0,0.0,41,0.00,CLR,,0.00,WeatherDisplay:10.37,2013-11-19 01:01:00,
2013-11-18 19:06:00,42.1,21.2,27.17,South,180,0.0,0.0,43,0.00,CLR,,0.00,WeatherDisplay:10.37,2013-11-19 01:06:00,
2013-11-18 19:11:00,41.7,20.8,27.17,South,180,0.0,0.0,43,0.00,CLR,,0.00,WeatherDisplay:10.37,2013-11-19 01:11:00,
2013-11-18 19:16:00,41.2,20.3,27.17,South,180,2.3,2.3,43,0.00,CLR,,0.00,WeatherDisplay:10.37,2013-11-19 01:16:00,
2013-11-18 19:21:00,40.6,20.4,27.17,SE,135,1.2,0.0,44,0.00,CLR,,0.00,WeatherDisplay:10.37,2013-11-19 01:21:00,
2013-11-18 19:26:00,39.9,19.7,27.17,South,180,1.2,1.2,44,0.00,CLR,,0.00,WeatherDisplay:10.37,2013-11-19 01:26:00,
2013-11-18 19:31:00,39.0,20.0,27.17,South,180,1.2,0.0,46,0.00,CLR,,0.00,WeatherDisplay:10.37,2013-11-19 01:31:00,
2013-11-18 19:36:00,38.7,19.6,27.17,South,180,1.2,0.0,46,0.00,CLR,,0.00,WeatherDisplay:10.37,2013-11-19 01:36:00,
2013-11-18 19:41:00,38.1,19.6,27.16,South,180,2.3,2.3,47,0.00,CLR,,0.00,WeatherDisplay:10.37,2013-11-19 01:41:00,
2013-11-18 19:44:00,37.9,19.5,27.16,SE,135,2.3,2.3,47,0.00,CLR,,0.00,WeatherDisplay:10.37,2013-11-19 01:44:00,
2013-11-18 19:49:00,37.8,19.3,27.17,NE,45,0.0,0.0,47,0.00,CLR,,0.00,WeatherDisplay:10.37,2013-11-19 01:49:00,
2013-11-18 19:54:00,37.8,19.8,27.17,South,180,0.0,0.0,48,0.00,CLR,,0.00,WeatherDisplay:10.37,2013-11-19 01:54:00,
2013-11-18 19:59:00,37.8,19.8,27.17,South,180,0.0,0.0,48,0.00,CLR,,0.00,WeatherDisplay:10.37,2013-11-19 01:59:00,
2013-11-18 20:04:00,37.8,19.8,27.16,South,180,0.0,0.0,48,0.00,CLR,,0.00,WeatherDisplay:10.37,2013-11-19 02:04:00,
2013-11-18 20:09:00,37.6,19.6,27.17,East,90,0.0,0.0,48,0.00,CLR,,0.00,WeatherDisplay:10.37,2013-11-19 02:09:00,
2013-11-18 20:14:00,37.4,20.0,27.17,NE,45,0.0,0.0,49,0.00,CLR,,0.00,WeatherDisplay:10.37,2013-11-19 02:14:00,
2013-11-18 20:19:00,37.2,18.3,27.17,NE,45,0.0,0.0,46,0.00,CLR,,0.00,WeatherDisplay:10.37,2013-11-19 02:19:00,
2013-11-18 20:24:00,37.0,18.1,27.17,NE,45,0.0,0.0,46,0.00,CLR,,0.00,WeatherDisplay:10.37,2013-11-19 02:24:00,
2013-11-18 20:29:00,36.7,17.8,27.16,NE,45,0.0,0.0,46,0.00,CLR,,0.00,WeatherDisplay:10.37,2013-11-19 02:29:00,
2013-11-18 20:34:00,36.5,17.7,27.17,NE,45,0.0,0.0,46,0.00,CLR,,0.00,WeatherDisplay:10.37,2013-11-19 02:34:00,
2013-11-18 20:39:00,36.5,17.7,27.17,NE,45,0.0,0.0,46,0.00,CLR,,0.00,WeatherDisplay:10.37,2013-11-19 02:39:00,
2013-11-18 20:44:00,36.5,17.7,27.17,NE,45,0.0,0.0,46,0.00,CLR,,0.00,WeatherDisplay:10.37,2013-11-19 02:44:00,
2013-11-18 20:49:00,36.5,18.2,27.17,East,90,1.2,0.0,47,0.00,CLR,,0.00,WeatherDisplay:10.37,2013-11-19 02:49:00,
2013-11-18 20:54:00,36.7,17.8,27.17,NE,45,1.2,0.0,46,0.00,CLR,,0.00,WeatherDisplay:10.37,2013-11-19 02:54:00,
2013-11-18 20:59:00,36.7,17.8,27.17,East,90,0.0,0.0,46,0.00,CLR,,0.00,WeatherDisplay:10.37,2013-11-19 02:59:00,
2013-11-18 21:04:00,36.5,18.2,27.17,SE,135,1.2,0.0,47,0.00,CLR,,0.00,WeatherDisplay:10.37,2013-11-19 03:04:00,
2013-11-18 21:09:00,36.3,18.0,27.17,North,0,0.0,0.0,47,0.00,CLR,,0.00,WeatherDisplay:10.37,2013-11-19 03:09:00,
2013-11-18 21:14:00,36.1,17.8,27.17,North,0,0.0,0.0,47,0.00,CLR,,0.00,WeatherDisplay:10.37,2013-11-19 03:14:00,
2013-11-18 21:19:00,35.8,17.5,27.17,North,0,0.0,0.0,47,0.00,CLR,,0.00,WeatherDisplay:10.37,2013-11-19 03:19:00,
2013-11-18 21:24:00,35.8,17.5,27.17,North,0,0.0,0.0,47,0.00,CLR,,0.00,WeatherDisplay:10.37,2013-11-19 03:24:00,
2013-11-18 21:29:00,35.4,17.7,27.17,SW,225,1.2,0.0,48,0.00,CLR,,0.00,WeatherDisplay:10.37,2013-11-19 03:29:00,
2013-11-18 21:34:00,35.1,17.3,27.18,SW,225,0.0,0.0,48,0.00,CLR,,0.00,WeatherDisplay:10.37,2013-11-19 03:34:00,
2013-11-18 21:39:00,34.7,17.0,27.18,NW,315,0.0,0.0,48,0.00,CLR,,0.00,WeatherDisplay:10.37,2013-11-19 03:39:00,
2013-11-18 21:44:00,34.2,17.0,27.18,North,0,0.0,0.0,49,0.00,CLR,,0.00,WeatherDisplay:10.37,2013-11-19 03:44:00,
2013-11-18 21:49:00,33.8,17.1,27.17,SE,135,0.0,0.0,50,0.00,CLR,,0.00,WeatherDisplay:10.37,2013-11-19 03:49:00,
2013-11-18 21:54:00,33.6,17.8,27.18,NE,45,0.0,0.0,52,0.00,CLR,,0.00,WeatherDisplay:10.37,2013-11-19 03:54:00,
2013-11-18 21:59:00,33.6,18.3,27.18,NE,45,0.0,0.0,53,0.00,CLR,,0.00,WeatherDisplay:10.37,2013-11-19 03:59:00,
2013-11-18 22:04:00,33.4,18.1,27.18,NE,45,0.0,0.0,53,0.00,CLR,,0.00,WeatherDisplay:10.37,2013-11-19 04:04:00,
2013-11-18 22:07:00,33.4,18.1,27.18,NE,45,0.0,0.0,53,0.00,CLR,,0.00,WeatherDisplay:10.37,2013-11-19 04:07:00,
2013-11-18 22:12:00,32.9,17.6,27.18,NE,45,0.0,0.0,53,0.00,CLR,,0.00,WeatherDisplay:10.37,2013-11-19 04:12:00,
2013-11-18 22:17:00,32.7,17.9,27.18,SE,135,0.0,0.0,54,0.00,CLR,,0.00,WeatherDisplay:10.37,2013-11-19 04:17:00,
2013-11-18 22:22:00,32.7,17.9,27.17,South,180,0.0,0.0,54,0.00,CLR,,0.00,WeatherDisplay:10.37,2013-11-19 04:22:00,
2013-11-18 22:27:00,32.5,17.7,27.17,NE,45,0.0,0.0,54,0.00,CLR,,0.00,WeatherDisplay:10.37,2013-11-19 04:27:00,
2013-11-18 22:32:00,32.4,17.6,27.18,NE,45,0.0,0.0,54,0.00,CLR,,0.00,WeatherDisplay:10.37,2013-11-19 04:32:00,
2013-11-18 22:37:00,32.4,17.6,27.18,NE,45,0.0,0.0,54,0.00,CLR,,0.00,WeatherDisplay:10.37,2013-11-19 04:37:00,
2013-11-18 22:42:00,32.4,17.6,27.17,NE,45,0.0,0.0,54,0.00,CLR,,0.00,WeatherDisplay:10.37,2013-11-19 04:42:00,
2013-11-18 22:47:00,32.4,17.6,27.17,NE,45,0.0,0.0,54,0.00,CLR,,0.00,WeatherDisplay:10.37,2013-11-19 04:47:00,
2013-11-18 22:52:00,32.4,18.0,27.17,NE,45,0.0,0.0,55,0.00,CLR,,0.00,WeatherDisplay:10.37,2013-11-19 04:52:00,
2013-11-18 22:57:00,32.5,18.1,27.17,East,90,1.2,0.0,55,0.00,CLR,,0.00,WeatherDisplay:10.37,2013-11-19 04:57:00,
2013-11-18 23:01:00,32.5,18.1,27.17,East,90,1.6,0.0,55,0.00,CLR,,0.00,WeatherDisplay:10.37,2013-11-19 05:01:00,
2013-11-18 23:06:00,32.7,18.3,27.17,East,90,1.2,1.2,55,0.00,CLR,,0.00,WeatherDisplay:10.37,2013-11-19 05:06:00,
2013-11-18 23:11:00,32.7,18.3,27.17,East,90,1.2,0.0,55,0.00,CLR,,0.00,WeatherDisplay:10.37,2013-11-19 05:11:00,
2013-11-18 23:16:00,32.7,18.3,27.17,NE,45,1.2,0.0,55,0.00,CLR,,0.00,WeatherDisplay:10.37,2013-11-19 05:16:00,
2013-11-18 23:21:00,32.7,18.3,27.17,East,90,1.2,0.0,55,0.00,CLR,,0.00,WeatherDisplay:10.37,2013-11-19 05:21:00,
2013-11-18 23:26:00,32.5,18.1,27.17,North,0,0.0,0.0,55,0.00,CLR,,0.00,WeatherDisplay:10.37,2013-11-19 05:26:00,
2013-11-18 23:31:00,32.5,18.1,27.17,North,0,0.0,0.0,55,0.00,CLR,,0.00,WeatherDisplay:10.37,2013-11-19 05:31:00,
2013-11-18 23:36:00,32.4,18.0,27.17,NE,45,1.2,0.0,55,0.00,CLR,,0.00,WeatherDisplay:10.37,2013-11-19 05:36:00,
2013-11-18 23:41:00,32.5,18.1,27.17,East,90,1.2,0.0,55,0.00,CLR,,0.00,WeatherDisplay:10.37,2013-11-19 05:41:00,
2013-11-18 23:46:00,32.5,18.1,27.17,North,0,1.2,0.0,55,0.00,CLR,,0.00,WeatherDisplay:10.37,2013-11-19 05:46:00,
2013-11-18 23:51:00,32.5,18.1,27.17,North,0,1.2,0.0,55,0.00,CLR,,0.00,WeatherDisplay:10.37,2013-11-19 05:51:00,
2013-11-18 23:56:00,32.5,18.1,27.17,East,90,0.0,0.0,55,0.00,CLR,,0.00,WeatherDisplay:10.37,2013-11-19 05:56:00,